Weather in Malyye Bikshikhi

Russia / Chuvash Republic     55°29′07″N   47°30′52″E
temp.,
°C
wind,
m/s
gust,
m/s
humid.,
%
clouds,
%
prec.,
mm/h
press.,
hPa
HPBL,
m
23 september, thu
thu2300:00+8se599382 0.0 1019415
03:00+7ese4995100 0.0 1019309
06:00+8ese41093100 0.0 1020377
09:00+10ese61386100 0.0 1020558
12:00+10ese51186100 0.9 1020471
15:00+10ese61386100 1.0 1019510
18:00+9se61390100 0.1 1019540
21:00+8se71391100 0.4 1018609
24 september, fri
fri2400:00+8se71294100 3.1 1016652
03:00+9se61294100 5.2 1015718
06:00+8se61295100 0.3 1015662
09:00+9se61190100 0.3 1014590
12:00+10se51181100 0.1 1013559
15:00+9se71289100 0.5 1012622
18:00+9sse81594100 3.9 1012832
21:00+8sse61492100 5.5 1012871
25 september, sat
sat2500:00+8se41089100 0.3 1011473
03:00+8se5993100 0.6 1010410
06:00+7ese3696100 0.9 1009314
09:00+8se3693100 2.0 1009333
12:00+8sse2492100 0.1 1010285
15:00+9se1288100 0.2 1010269
18:00+8se2293100 0.0 101135
21:00+7se119369 0.0 101114
26 september, sun
sun2600:00+6sse11945 0.0 101110
03:00+5e11955 0.0 101110
06:00+5e1195100 0.0 101110
09:00+9e2283100 0.0 1010301
12:00+12ene2270100 0.0 1010715
15:00+12ne3369100 0.0 1010795
18:00+9ne3684100 0.0 1011131
21:00+7ne3791100 0.0 1011203
27 september, mon
mon2700:00+7nne3893100 0.0 1011261
03:00+7n4894100 0.1 1012455
06:00+8ne6987100 0.2 1013554
09:00+8ne61082100 0.2 1015767
12:00+6ene7889100 0.8 1018993
15:00+5ene61092100 1.1 1021801
18:00+5ene51182100 0.0 1023814
21:00+4ne49835 0.0 1024254